Location: Tel Aviv
(32.0670°N, 34.7670°E)
Time: 14:26:57
(UTC+03:00)

Oscar 19 - Visible Passes

Search period start: 17 September 2024 00:00
Search period end: 27 September 2024 00:00
Orbit: 772 x 787 km, 98.9° (Epoch: 16 September)

Date Brightness Start Highest point End Pass type
(mag) Time Alt. Az. Time Alt. Az. Time Alt. Az.
17 Sep 12.7 05:22:10 10° NE 05:26:41 30° E 05:31:09 10° SSE visible
18 Sep 13.7 04:51:24 10° ENE 04:53:51 13° E 04:56:18 10° ESE visible
19 Sep 11.1 05:55:38 10° NNE 06:00:48 68° ESE 06:05:55 10° S visible
20 Sep 12.7 05:23:35 10° NE 05:28:08 30° E 05:32:37 10° SSE visible
21 Sep 13.7 04:52:45 10° ENE 04:55:19 14° E 04:57:51 10° ESE visible
22 Sep 11.1 05:57:04 10° NNE 06:02:14 70° ESE 06:07:21 10° S visible
23 Sep 12.6 05:25:00 10° NE 05:29:34 31° E 05:34:05 10° SSE visible
24 Sep 13.7 04:54:06 10° ENE 04:56:45 14° E 04:59:22 10° SE visible
25 Sep 11.0 05:58:30 10° NNE 06:03:40 71° ESE 06:08:47 10° S visible
25 Sep 14.4 18:53:07 10° WSW 18:54:36 11° W 18:56:05 10° WNW visible
26 Sep 12.6 05:26:24 10° NE 05:30:59 32° E 05:35:32 10° SSE visible
